When you browse on this site, cookies collect data to enhance your experience and personalize the content and advertising you see.
Visit our Privacy Policy to learn more. By continuing to use the site, you agree to this use of cookies and data.
  • In Portugal
  • List of Countries
  • For 7 days
  • Water Temperature
  • Satellite Maps
  • Weather Map
  • Weather Widgets
  • user-avatar
    Login

    Hourly Weather Kukow

    Today, 25 May, Saturday

    Time Temperature Precipitation Wind Pressure Humidity
    00:00 +10°C° 0 mm 2 mps 742 mmHg 83%
    01:00 +11°C° 0 mm 1 mps 741 mmHg 81%
    02:00 +10°C° 0 mm 1 mps 741 mmHg 83%
    03:00 +11°C° 0 mm 1 mps 741 mmHg 83%
    04:00 +11°C° 0 mm 1 mps 741 mmHg 82%
    05:00 +11°C° 0 mm 1 mps 741 mmHg 82%
    06:00 +13°C° 0 mm 2 mps 741 mmHg 79%
    07:00 +14°C° 0 mm 3 mps 741 mmHg 76%
    08:00 +17°C° 0 mm 4 mps 741 mmHg 73%
    09:00 +18°C° 0 mm 4 mps 741 mmHg 68%
    10:00 +19°C° 0 mm 4 mps 741 mmHg 64%
    11:00 +20°C° 0 mm 5 mps 741 mmHg 59%
    12:00 +19°C° 0.4 mm 5 mps 741 mmHg 65%
    13:00 +19°C° 0.4 mm 5 mps 741 mmHg 71%
    14:00 +17°C° 0.4 mm 5 mps 741 mmHg 77%
    15:00 +16°C° 0.1 mm 5 mps 741 mmHg 75%
    16:00 +16°C° 0.1 mm 5 mps 741 mmHg 73%
    17:00 +16°C° 0.1 mm 6 mps 741 mmHg 71%
    18:00 +14°C° 0 mm 5 mps 741 mmHg 75%
    19:00 +13°C° 0 mm 4 mps 741 mmHg 79%
    20:00 +12°C° 0 mm 3 mps 741 mmHg 83%
    21:00 +10°C° 0 mm 3 mps 741 mmHg 87%
    22:00 +9°C° 0 mm 2 mps 741 mmHg 91%
    23:00 +8°C° 0 mm 2 mps 742 mmHg 95%

    Tomorrow, 26 May, Sunday

    Time Temperature Precipitation Wind Pressure Humidity
    00:00 +7°C° 0 mm 2 mps 742 mmHg 96%
    01:00 +7°C° 0 mm 2 mps 742 mmHg 96%
    02:00 +6°C° 0 mm 2 mps 742 mmHg 97%
    03:00 +6°C° 0 mm 2 mps 742 mmHg 97%
    04:00 +6°C° 0 mm 2 mps 742 mmHg 97%
    05:00 +7°C° 0 mm 2 mps 742 mmHg 97%
    06:00 +8°C° 0 mm 3 mps 742 mmHg 91%
    07:00 +10°C° 0 mm 4 mps 742 mmHg 85%
    08:00 +12°C° 0 mm 4 mps 742 mmHg 79%
    09:00 +13°C° 0 mm 5 mps 741 mmHg 76%
    10:00 +14°C° 0 mm 5 mps 741 mmHg 74%
    11:00 +14°C° 0 mm 5 mps 741 mmHg 71%
    12:00 +15°C° 0.1 mm 6 mps 741 mmHg 70%
    13:00 +15°C° 0.1 mm 6 mps 741 mmHg 70%
    14:00 +15°C° 0.1 mm 6 mps 741 mmHg 69%
    15:00 +15°C° 0.1 mm 6 mps 741 mmHg 71%
    16:00 +14°C° 0.1 mm 6 mps 740 mmHg 73%
    17:00 +14°C° 0.1 mm 6 mps 740 mmHg 75%
    18:00 +13°C° 0.1 mm 5 mps 740 mmHg 78%
    19:00 +13°C° 0.1 mm 4 mps 740 mmHg 82%
    20:00 +12°C° 0.1 mm 3 mps 740 mmHg 86%
    21:00 +12°C° 0 mm 3 mps 740 mmHg 86%
    22:00 +12°C° 0 mm 3 mps 740 mmHg 86%
    23:00 +11°C° 0 mm 3 mps 740 mmHg 87%

    Day after tomorrow, 27 May, Monday

    Time Temperature Precipitation Wind Pressure Humidity
    00:00 +12°C° 0.1 mm 4 mps 740 mmHg 87%
    01:00 +12°C° 0.1 mm 4 mps 740 mmHg 87%
    02:00 +12°C° 0.1 mm 4 mps 740 mmHg 87%
    03:00 +12°C° 0 mm 4 mps 740 mmHg 90%
    04:00 +11°C° 0 mm 4 mps 740 mmHg 93%
    05:00 +11°C° 0 mm 4 mps 740 mmHg 95%
    06:00 +12°C° 0 mm 4 mps 740 mmHg 93%
    07:00 +13°C° 0 mm 4 mps 740 mmHg 90%
    08:00 +14°C° 0 mm 4 mps 740 mmHg 87%
    09:00 +15°C° 0.1 mm 5 mps 740 mmHg 86%
    10:00 +15°C° 0.1 mm 6 mps 740 mmHg 85%
    11:00 +16°C° 0.1 mm 7 mps 740 mmHg 83%
    12:00 +18°C° 0.2 mm 7 mps 740 mmHg 77%
    13:00 +20°C° 0.2 mm 7 mps 740 mmHg 72%
    14:00 +22°C° 0.2 mm 8 mps 739 mmHg 66%
    15:00 +20°C° 0.9 mm 6 mps 739 mmHg 74%
    16:00 +19°C° 0.9 mm 5 mps 739 mmHg 81%
    17:00 +18°C° 0.9 mm 4 mps 739 mmHg 89%
    18:00 +17°C° 0.7 mm 3 mps 739 mmHg 91%
    19:00 +17°C° 0.7 mm 2 mps 739 mmHg 92%
    20:00 +18°C° 0.7 mm 1 mps 740 mmHg 93%
    21:00 +16°C° 0.2 mm 1 mps 740 mmHg 94%
    22:00 +15°C° 0.2 mm 1 mps 740 mmHg 95%
    23:00 +14°C° 0.2 mm 1 mps 740 mmHg 96%

    28 May, Tuesday

    Time Temperature Precipitation Wind Pressure Humidity
    00:00 +14°C° 0 mm 1 mps 740 mmHg 96%
    01:00 +14°C° 0 mm 2 mps 741 mmHg 97%
    02:00 +13°C° 0 mm 2 mps 741 mmHg 98%
    03:00 +13°C° 0 mm 2 mps 741 mmHg 97%
    04:00 +13°C° 0 mm 2 mps 741 mmHg 97%
    05:00 +13°C° 0 mm 2 mps 741 mmHg 97%
    06:00 +14°C° 0 mm 2 mps 741 mmHg 94%
    07:00 +15°C° 0 mm 2 mps 741 mmHg 92%
    08:00 +16°C° 0 mm 2 mps 741 mmHg 89%
    09:00 +16°C° 0 mm 2 mps 741 mmHg 87%
    10:00 +17°C° 0 mm 2 mps 741 mmHg 86%
    11:00 +18°C° 0 mm 2 mps 741 mmHg 84%
    12:00 +18°C° 1.3 mm 2 mps 740 mmHg 88%
    13:00 +17°C° 1.3 mm 2 mps 740 mmHg 91%
    14:00 +17°C° 1.3 mm 3 mps 740 mmHg 95%
    15:00 +17°C° 0.3 mm 3 mps 739 mmHg 94%
    16:00 +18°C° 0.3 mm 3 mps 739 mmHg 93%
    17:00 +18°C° 0.3 mm 3 mps 739 mmHg 92%
    18:00 +18°C° 0 mm 3 mps 739 mmHg 93%
    19:00 +17°C° 0 mm 3 mps 739 mmHg 95%
    20:00 +17°C° 0 mm 3 mps 738 mmHg 96%
    21:00 +16°C° 0.1 mm 3 mps 738 mmHg 97%
    22:00 +16°C° 0.1 mm 2 mps 738 mmHg 97%
    23:00 +16°C° 0.1 mm 2 mps 738 mmHg 98%

    29 May, Wednesday

    Time Temperature Precipitation Wind Pressure Humidity
    00:00 +16°C° 0.2 mm 2 mps 738 mmHg 98%
    01:00 +16°C° 0.2 mm 2 mps 738 mmHg 98%
    02:00 +16°C° 0.2 mm 2 mps 738 mmHg 98%
    03:00 +16°C° 0 mm 2 mps 737 mmHg 98%
    04:00 +15°C° 0 mm 2 mps 737 mmHg 98%
    05:00 +15°C° 0 mm 2 mps 736 mmHg 98%
    06:00 +16°C° 0.1 mm 3 mps 736 mmHg 97%
    07:00 +17°C° 0.1 mm 3 mps 736 mmHg 96%
    08:00 +18°C° 0.1 mm 3 mps 736 mmHg 94%
    09:00 +19°C° 0.4 mm 3 mps 736 mmHg 93%
    10:00 +19°C° 0.4 mm 3 mps 736 mmHg 92%
    11:00 +20°C° 0.4 mm 3 mps 736 mmHg 90%
    12:00 +20°C° 1.9 mm 3 mps 736 mmHg 90%
    13:00 +20°C° 1.9 mm 4 mps 737 mmHg 90%
    14:00 +19°C° 1.9 mm 4 mps 737 mmHg 89%
    15:00 +16°C° 0.7 mm 5 mps 737 mmHg 90%
    16:00 +14°C° 0.7 mm 6 mps 738 mmHg 91%
    17:00 +11°C° 0.7 mm 7 mps 738 mmHg 92%
    18:00 +10°C° 0 mm 7 mps 739 mmHg 91%
    19:00 +9°C° 0 mm 7 mps 740 mmHg 90%
    20:00 +8°C° 0 mm 7 mps 741 mmHg 90%
    21:00 +8°C° 0 mm 6 mps 742 mmHg 88%
    22:00 +8°C° 0 mm 6 mps 743 mmHg 87%
    23:00 +8°C° 0 mm 5 mps 744 mmHg 85%

    30 May, Thursday

    Time Temperature Precipitation Wind Pressure Humidity
    00:00 +7°C° 0 mm 5 mps 744 mmHg 86%
    01:00 +6°C° 0 mm 5 mps 745 mmHg 86%
    02:00 +6°C° 0 mm 4 mps 745 mmHg 87%
    03:00 +5°C° 0 mm 4 mps 746 mmHg 87%
    04:00 +5°C° 0 mm 4 mps 746 mmHg 88%
    05:00 +5°C° 0 mm 3 mps 747 mmHg 88%
    06:00 +7°C° 0 mm 3 mps 748 mmHg 82%
    07:00 +8°C° 0 mm 4 mps 748 mmHg 77%
    08:00 +11°C° 0 mm 4 mps 749 mmHg 71%
    09:00 +12°C° 0 mm 4 mps 749 mmHg 66%
    10:00 +13°C° 0 mm 4 mps 750 mmHg 61%
    11:00 +14°C° 0 mm 4 mps 750 mmHg 56%
    12:00 +16°C° 0 mm 3 mps 750 mmHg 54%
    13:00 +17°C° 0 mm 3 mps 750 mmHg 52%
    14:00 +17°C° 0 mm 3 mps 750 mmHg 50%
    15:00 +17°C° 0 mm 3 mps 750 mmHg 51%
    16:00 +17°C° 0 mm 2 mps 750 mmHg 51%
    17:00 +17°C° 0 mm 2 mps 750 mmHg 52%
    18:00 +15°C° 0 mm 1 mps 749 mmHg 58%
    19:00 +14°C° 0 mm 1 mps 749 mmHg 63%
    20:00 +12°C° 0 mm 0 mps 749 mmHg 69%
    21:00 +12°C° 0 mm 1 mps 749 mmHg 71%
    22:00 +11°C° 0 mm 1 mps 749 mmHg 73%
    23:00 +9°C° 0 mm 2 mps 749 mmHg 75%
    Show more